Wetbulb
70.41 69.59 66.95 64.06 55.45 51.84 46.77 50.53 55.81 55.72 56.82 60.54 61.54 60.31 60.24 62.31 57.55 49.05 64.58 68.81 69.75 70.06 72.29 73.57 75.53 74.86 74.45 74.21 74.09 73.85 73.85 73.52 73.52 73.11 72.72 72.47 72.58 71.94 72.07 73.03 73.23 72.92 71.13 70.32 70.10 69.81 69.85 69.17 69.05
67.67 69.18 66.14 60.11 52.42 46.78 45.63 53.52 54.23 55.98 59.09 62.30 61.06 59.88 59.48 56.46 61.15 60.41 64.71 68.87 69.92 70.31 70.49 72.27 75.58 75.45 74.49 74.37 74.27 74.03 73.55 73.30 73.21 72.88 72.41 72.06 72.24 72.15 71.41 72.54 72.46 71.79 70.45 69.90 69.59 68.65 68.84 68.61 68.89
68.86 69.67 61.40 55.41 51.36 48.87 46.83 53.50 54.70 56.14 61.14 60.74 59.73 62.03 60.30 57.39 61.59 61.27 67.70 69.68 69.81 68.52 69.74 72.22 75.49 75.49 74.69 74.12 74.05 73.83 73.50 73.06 72.78 72.48 72.29 72.06 72.39 72.73 72.74 72.58 72.29 71.05 70.07 69.80 69.91 68.86 68.05 67.56 68.26
66.91 63.64 61.00 53.43 50.82 54.48 53.11 56.27 57.06 57.61 59.93 61.30 61.30 58.21 62.22 63.76 62.01 62.30 68.25 69.73 68.11 68.06 70.73 74.56 75.81 75.79 75.51 74.54 74.22 73.98 73.77 73.57 73.13 72.73 72.65 72.68 72.63 73.18 72.91 72.78 72.89 72.46 71.35 70.71 71.11 71.11 69.61 67.59 67.72
63.51 59.71 52.98 51.48 53.41 57.06 56.94 57.43 57.96 56.40 58.96 59.55 60.71 57.76 58.89 62.70 64.01 64.16 65.76 67.80 67.49 70.83 72.15 73.44 75.91 75.84 75.74 74.72 74.44 74.45 73.95 74.08 73.75 73.32 73.12 73.25 73.57 73.65 73.61 73.40 73.00 72.71 72.44 72.86 72.22 71.93 70.20 69.15 68.53
55.57 56.28 50.67 46.90 52.14 57.33 56.96 57.65 57.78 57.90 58.88 60.31 59.52 59.00 59.25 64.35 63.53 65.04 65.17 65.36 71.08 71.51 71.88 73.38 75.43 75.96 75.76 75.46 75.18 74.83 74.46 74.33 74.06 73.78 73.68 73.70 73.58 73.51 73.41 73.21 73.03 73.19 73.78 74.06 73.72 72.50 71.40 69.61 69.11
55.04 51.80 49.67 51.52 51.81 55.59 56.87 60.55 57.88 57.71 58.83 60.58 62.32 57.86 60.17 62.88 63.14 65.67 65.01 65.19 66.03 67.41 68.34 69.92 72.99 74.76 75.71 75.46 75.19 75.14 74.69 74.49 74.44 73.42 72.99 73.54 72.85 72.47 72.12 69.63 70.40 71.26 72.44 74.04 73.78 73.01 72.39 70.64 69.66
58.39 55.52 50.53 52.37 52.30 51.57 58.61 59.27 59.14 58.84 59.03 64.55 65.05 58.40 57.40 61.61 64.29 65.13 65.50 65.59 65.45 66.10 67.30 68.14 69.96 72.39 73.39 73.43 75.59 74.99 73.64 73.79 73.71 73.12 73.27 71.59 71.17 71.44 69.01 70.11 69.91 70.45 70.97 72.91 73.59 73.48 72.81 71.21 70.31
56.70 51.92 47.91 52.05 52.88 54.17 58.78 58.40 61.18 61.56 60.21 61.97 63.30 62.88 63.81 65.56 66.67 65.84 63.85 64.87 64.79 65.38 65.42 67.91 67.42 69.75 71.53 71.76 73.46 74.86 72.72 73.79 73.81 72.67 71.58 69.01 67.73 68.09 70.05 69.64 70.64 71.64 72.21 71.54 71.18 71.57 72.94 71.62 70.72
52.44 49.35 50.49 56.84 56.71 56.34 59.23 58.86 59.07 59.95 57.72 58.63 63.60 63.69 65.94 65.98 64.41 63.07 63.54 62.06 63.82 65.34 64.05 65.89 68.48 70.70 70.42 72.54 70.92 70.96 71.18 69.95 68.45 66.92 66.99 66.74 67.00 68.21 69.25 71.29 72.57 71.94 71.59 69.30 68.54 68.86 71.03 71.91 65.10
52.77 53.56 57.96 57.94 58.91 59.39 57.92 57.69 60.98 59.18 55.76 58.24 61.05 61.54 63.71 63.75 63.73 62.37 63.45 64.26 62.97 64.58 64.97 65.82 71.30 70.80 70.23 70.18 69.98 69.84 69.54 68.69 67.55 66.99 66.95 65.51 67.14 66.78 65.96 65.77 67.29 68.89 69.96 69.05 68.65 67.78 67.54 66.97 64.02
55.48 58.50 59.47 59.58 60.31 58.90 57.65 59.52 58.55 60.02 59.93 63.37 63.92 63.90 63.39 64.21 63.62 63.09 61.42 62.61 65.25 65.68 66.96 70.16 70.66 70.94 69.28 69.74 68.89 68.50 67.91 67.65 67.14 65.94 67.96 66.30 65.08 66.24 67.12 67.16 67.43 67.05 67.63 66.52 65.84 63.96 63.78 64.58 64.76
55.97 58.57 58.23 59.93 58.42 57.91 59.43 58.63 59.06 58.97 62.59 66.52 65.20 63.90 62.85 62.70 64.11 62.64 63.11 65.11 67.57 68.08 68.90 69.61 70.45 69.30 69.33 69.83 68.85 68.47 68.54 67.95 65.10 67.45 66.40 65.68 66.39 66.31 67.28 67.07 64.43 64.85 66.89 63.93 63.01 62.51 62.76 64.46 66.25
58.49 58.02 57.87 58.50 57.73 57.36 58.16 57.86 59.85 60.59 63.05 66.32 65.78 64.76 64.72 65.70 66.89 65.33 66.54 66.79 67.14 67.62 67.09 69.01 69.12 68.89 68.46 68.96 67.67 67.97 66.78 67.07 66.51 64.62 63.63 64.43 65.75 65.66 65.66 65.28 64.30 63.70 65.40 65.42 64.22 62.68 64.83 65.11 64.77
57.33 54.79 56.18 57.72 57.36 55.37 57.94 56.40 58.68 63.60 64.71 63.93 64.85 65.47 66.39 67.53 67.16 66.49 67.17 66.34 66.47 67.86 66.73 65.19 65.35 64.21 63.47 65.84 67.48 66.60 67.80 66.89 65.82 66.23 65.59 64.68 64.47 63.47 64.54 63.78 63.48 63.78 64.69 63.42 63.70 64.17 64.00 63.07 63.90
53.92 53.68 49.57 54.01 57.87 57.60 56.32 51.61 59.31 63.20 62.80 63.15 64.89 65.74 66.12 65.65 65.85 66.71 67.17 66.68 65.96 65.74 64.10 63.75 63.28 62.05 61.80 62.77 61.79 61.69 66.25 65.31 64.88 64.23 63.11 62.14 61.54 62.34 61.38 60.30 60.82 60.45 62.16 62.16 61.31 60.95 60.52 60.83 60.53
51.26 46.92 49.14 52.22 57.63 58.37 56.96 52.22 56.65 61.02 60.64 61.70 62.84 65.31 65.01 64.53 65.25 65.23 65.40 64.81 64.36 63.42 63.15 61.76 61.18 60.58 60.63 60.35 60.76 60.77 60.93 64.31 64.26 61.99 60.52 59.57 58.77 59.62 57.46 57.23 58.44 57.67 57.29 58.03 59.64 59.11 58.72 58.24 58.55
49.62 48.83 48.63 50.22 56.22 54.61 52.63 53.03 56.86 58.79 59.68 57.17 57.76 60.57 63.13 63.26 63.39 64.68 64.41 64.70 64.10 62.79 61.48 61.67 60.72 59.71 59.29 59.47 59.02 59.44 59.49 60.70 60.38 59.04 59.31 58.61 57.61 58.41 55.91 55.43 55.67 55.51 55.13 55.90 56.27 55.41 55.42 55.54 55.17
54.43 51.06 51.26 53.46 55.79 54.20 53.49 53.38 55.38 56.56 56.71 56.24 60.21 61.33 61.79 62.23 64.07 63.88 63.73 64.11 63.05 61.47 60.41 60.13 59.68 58.31 57.99 57.61 56.39 56.40 55.66 55.80 57.99 58.28 58.20 57.95 57.47 57.02 55.08 54.23 53.65 53.79 53.36 53.57 54.07 53.43 52.29 51.67 52.84
51.50 49.81 48.35 53.67 55.59 53.64 53.53 52.66 55.08 57.13 58.15 58.23 55.89 59.44 62.01 60.74 61.17 61.75 61.99 62.06 60.70 60.18 59.88 59.14 59.52 58.54 57.57 57.44 56.14 55.60 54.56 54.57 53.77 55.12 55.79 57.32 57.71 56.35 56.08 55.45 53.71 53.27 53.24 52.46 52.07 51.59 50.85 50.95 51.83
50.61 50.68 51.24 50.67 53.67 54.28 52.30 50.37 51.49 56.51 56.28 57.44 57.56 57.71 61.01 60.19 59.62 60.31 58.93 58.90 59.66 59.32 59.15 58.89 58.34 58.37 57.70 56.22 54.81 54.26 54.38 53.29 52.53 55.24 55.96 56.43 57.65 58.10 56.38 55.26 53.74 53.71 52.89 52.50 51.45 51.34 50.81 49.71 51.09
47.84 56.03 55.30 53.96 50.84 44.44 52.96 42.48 48.60 52.19 53.26 54.51 54.69 55.47 58.14 59.08 59.38 58.16 57.05 56.41 58.25 58.70 59.85 59.15 58.60 57.18 58.00 56.01 53.47 52.37 53.26 51.67 52.86 53.87 53.97 54.33 56.04 56.26 56.47 55.25 54.89 53.66 53.47 52.79 52.54 54.16 52.07 50.67 49.12
52.03 56.56 54.33 53.98 49.56 49.19 49.72 44.14 47.67 52.90 51.29 53.40 55.51 57.06 56.91 57.04 56.09 55.19 56.09 56.97 57.55 57.90 58.55 58.47 57.30 56.35 56.54 55.74 54.40 52.37 52.02 52.93 52.63 53.19 53.00 53.02 53.01 54.21 56.21 55.61 54.70 54.13 53.98 53.82 53.67 53.17 52.18 51.80 50.36
55.85 53.70 52.72 50.47 48.13 42.56 48.65 47.50 46.25 49.84 52.26 54.89 57.74 57.09 57.79 56.58 56.11 55.59 56.56 57.25 56.84 57.27 58.34 57.04 55.78 55.10 55.81 54.31 53.75 52.51 51.62 51.61 51.21 52.32 51.40 52.36 51.97 52.94 54.70 55.78 54.81 54.27 53.41 52.91 52.96 52.79 52.32 51.75 51.44
51.01 45.92 40.41 40.74 41.41 40.68 49.54 46.94 48.09 52.24 55.35 56.46 56.48 57.05 55.48 55.24 54.84 55.08 54.89 55.22 55.81 56.09 56.50 56.86 54.78 53.91 54.24 53.67 53.42 53.01 52.12 52.23 51.31 51.64 51.94 51.57 51.93 52.43 54.27 54.15 53.75 53.04 52.77 52.95 52.41 52.11 51.43 51.37 50.66
48.54 46.43 42.75 37.40 37.61 41.46 49.47 44.26 48.13 55.79 56.93 58.52 57.17 55.74 55.58 54.70 54.13 55.21 55.35 55.35 55.90 56.41 55.75 55.41 54.19 53.30 53.17 53.38 53.17 53.16 52.60 52.64 52.54 52.40 52.70 52.29 52.29 53.32 54.04 53.26 53.06 53.00 52.78 53.33 52.79 51.36 51.65 51.89 51.07
51.38 47.38 49.62 43.63 44.36 41.68 45.46 49.71 54.40 55.68 56.08 56.64 55.68 56.17 55.11 54.41 54.68 54.75 55.60 55.72 55.80 55.22 54.27 54.62 53.80 53.08 53.21 53.73 52.53 52.31 52.57 52.63 52.64 53.10 53.46 53.27 53.36 55.03 53.53 53.15 52.27 51.74 52.11 52.74 52.13 51.21 51.23 51.00 50.75
51.93 53.60 46.08 43.72 37.19 37.94 43.77 47.49 46.27 51.64 53.72 55.29 56.11 55.58 55.02 53.98 53.97 54.95 55.69 55.29 54.66 54.59 54.00 53.63 52.86 52.44 52.51 52.77 52.51 52.71 52.67 53.60 53.71 53.36 53.21 53.25 53.56 52.80 52.28 53.54 51.84 51.09 51.70 52.30 51.59 50.64 50.75 50.08 50.97
48.82 47.49 48.17 46.62 45.84 39.41 39.59 43.51 52.89 52.71 53.96 53.80 54.48 55.08 53.76 53.22 53.06 54.78 55.02 54.99 54.44 54.10 53.77 52.62 51.92 52.00 52.43 52.73 52.22 52.20 52.78 53.35 54.07 53.69 53.43 53.15 52.99 52.80 52.63 52.84 51.02 51.10 51.11 50.57 50.51 50.02 50.60 49.77 49.12
53.38 49.04 47.96 41.01 41.40 45.46 44.28 44.00 55.31 56.57 55.96 55.19 54.86 54.90 54.80 54.37 53.25 54.64 54.71 54.35 54.19 53.43 53.50 52.25 51.81 51.67 52.79 52.60 52.49 51.57 53.11 53.37 53.26 53.73 53.61 53.73 52.50 52.80 52.62 53.12 52.36 52.78 51.07 50.07 50.16 50.25 49.81 48.92 48.50
MSLP
1010.10 1010.09 1010.65 1010.94 1012.09 1012.53 1010.38 1009.24 1008.31 1008.29 1007.82 1007.71 1007.84 1008.75 1009.98 1010.16 1011.42 1013.03 1013.47 1013.18 1013.97 1014.75 1015.15 1015.47 1015.75 1016.04 1016.30 1016.53 1016.67 1016.84 1016.95 1016.98 1017.02 1017.10 1017.26 1017.30 1017.30 1017.30 1017.32 1017.27 1017.20 1017.15 1017.11 1017.11 1017.01 1017.00 1016.95 1016.87 1016.65
1009.95 1009.34 1010.55 1011.55 1012.78 1012.77 1010.46 1008.94 1008.48 1008.02 1007.96 1008.16 1008.62 1009.26 1010.16 1011.23 1011.31 1012.50 1013.36 1013.74 1013.91 1014.84 1015.55 1015.95 1016.25 1016.45 1016.57 1016.69 1016.86 1016.97 1017.04 1017.11 1017.15 1017.18 1017.16 1017.15 1017.24 1017.35 1017.45 1017.39 1017.22 1017.14 1017.09 1017.04 1017.06 1017.01 1017.02 1016.95 1016.79
1010.23 1009.78 1010.95 1012.38 1013.85 1013.43 1010.55 1008.91 1008.68 1008.30 1008.02 1008.54 1008.99 1009.41 1010.14 1011.29 1011.66 1012.19 1013.39 1014.01 1014.41 1015.09 1015.65 1016.09 1016.36 1016.57 1016.75 1016.86 1016.93 1017.06 1017.13 1017.16 1017.16 1017.11 1017.12 1017.17 1017.21 1017.26 1017.32 1017.24 1017.21 1017.06 1016.91 1016.96 1016.99 1016.93 1016.76 1016.85 1016.80
1010.04 1010.16 1011.09 1012.30 1013.49 1012.54 1010.10 1008.75 1008.94 1008.89 1008.76 1008.93 1009.40 1010.39 1011.05 1011.27 1011.97 1012.53 1013.55 1013.62 1014.12 1014.75 1015.33 1015.89 1016.36 1016.47 1016.44 1016.57 1016.76 1016.86 1016.85 1016.90 1017.02 1016.98 1016.99 1017.05 1016.97 1017.03 1017.00 1017.01 1016.97 1016.85 1016.78 1016.71 1016.58 1016.74 1016.81 1016.68 1016.58
1010.34 1010.16 1011.00 1013.03 1013.05 1012.49 1009.78 1009.07 1008.65 1009.06 1009.33 1009.78 1010.24 1011.49 1012.14 1012.22 1012.40 1012.94 1013.19 1013.36 1014.07 1015.12 1015.46 1015.76 1015.86 1015.98 1016.13 1016.36 1016.47 1016.78 1017.06 1017.41 1017.29 1017.11 1016.91 1016.83 1016.89 1016.72 1016.68 1016.73 1016.73 1016.66 1016.64 1016.57 1016.61 1016.52 1016.59 1016.51 1016.44
1010.19 1010.10 1010.92 1012.32 1012.69 1012.36 1010.93 1010.27 1009.52 1009.88 1009.76 1010.23 1010.96 1011.71 1012.59 1012.87 1013.53 1014.77 1015.13 1014.98 1015.71 1015.55 1015.40 1015.49 1015.54 1015.89 1016.31 1016.55 1016.53 1016.73 1016.59 1016.44 1016.63 1016.96 1016.95 1016.65 1016.63 1016.53 1016.63 1016.63 1016.56 1016.45 1016.45 1016.36 1016.37 1016.35 1016.39 1016.34 1016.34
1009.47 1010.11 1010.65 1011.71 1012.88 1012.78 1012.17 1011.14 1011.66 1010.82 1010.64 1010.87 1010.94 1011.83 1013.29 1014.66 1015.56 1015.10 1015.20 1015.56 1016.26 1017.08 1017.23 1017.35 1016.66 1015.95 1016.32 1016.72 1016.75 1016.36 1016.27 1016.55 1016.47 1016.64 1016.99 1016.65 1016.69 1016.53 1016.57 1016.38 1016.19 1016.04 1016.08 1016.15 1016.06 1016.15 1016.12 1015.96 1015.95
1007.91 1007.96 1009.69 1010.39 1012.37 1013.61 1012.62 1012.23 1012.26 1011.69 1011.67 1010.95 1012.04 1012.72 1014.57 1015.97 1015.33 1014.79 1014.54 1014.22 1015.40 1016.40 1016.32 1017.10 1017.05 1016.89 1016.54 1016.64 1016.64 1016.54 1016.61 1016.69 1016.47 1016.35 1016.31 1016.51 1016.40 1016.26 1016.05 1015.72 1015.44 1015.42 1015.19 1015.74 1015.89 1015.92 1015.88 1015.74 1015.60
1007.00 1008.15 1008.87 1010.97 1011.89 1013.33 1012.32 1012.74 1010.95 1012.04 1011.82 1012.50 1012.92 1013.74 1015.73 1015.18 1014.33 1014.01 1014.68 1014.90 1014.94 1016.09 1016.66 1017.09 1017.02 1017.00 1016.55 1016.59 1016.56 1016.53 1016.58 1016.34 1016.07 1016.01 1016.35 1016.49 1016.55 1016.23 1016.05 1015.43 1015.41 1015.40 1015.56 1015.71 1015.61 1015.82 1015.41 1015.34 1015.24
1006.33 1007.00 1008.48 1009.44 1010.98 1012.00 1012.34 1011.69 1011.83 1012.56 1012.56 1013.33 1014.36 1014.57 1015.21 1016.55 1015.81 1015.29 1016.12 1016.88 1016.81 1017.07 1017.63 1017.97 1017.75 1016.28 1016.20 1016.37 1016.42 1016.45 1016.23 1016.06 1015.92 1016.07 1016.42 1016.37 1016.09 1015.81 1015.59 1015.26 1015.12 1015.09 1015.13 1015.05 1014.48 1014.71 1015.21 1015.07 1015.32
1005.28 1007.05 1008.35 1010.09 1010.14 1010.00 1010.91 1011.47 1011.91 1012.58 1013.02 1013.07 1014.58 1014.90 1014.90 1015.46 1017.61 1017.04 1017.52 1017.87 1017.76 1017.97 1018.38 1017.85 1016.32 1016.49 1016.42 1016.40 1016.37 1016.07 1016.03 1015.94 1015.94 1016.25 1016.57 1016.59 1016.56 1016.06 1015.65 1015.35 1015.26 1014.94 1014.77 1014.91 1014.82 1015.09 1015.48 1015.05 1015.23
1006.55 1008.75 1009.26 1010.55 1009.97 1010.20 1010.64 1011.90 1012.49 1012.70 1013.15 1014.46 1015.04 1015.51 1015.59 1017.02 1018.19 1017.96 1018.22 1018.30 1018.17 1017.99 1017.60 1017.02 1016.75 1016.89 1016.69 1016.25 1015.81 1015.85 1016.24 1016.00 1016.75 1016.46 1016.95 1016.92 1016.66 1015.40 1015.97 1015.35 1015.36 1015.52 1015.27 1015.44 1015.24 1015.65 1016.27 1015.68 1015.75
1006.78 1008.99 1010.20 1010.61 1010.09 1010.07 1010.84 1011.94 1011.82 1013.20 1013.30 1015.00 1016.36 1016.50 1016.72 1017.23 1018.35 1018.98 1018.79 1018.75 1018.09 1017.69 1017.26 1017.14 1016.96 1017.04 1016.72 1016.39 1016.11 1015.96 1015.88 1016.88 1017.34 1017.30 1017.55 1016.67 1016.24 1016.43 1015.76 1015.37 1015.70 1015.87 1015.82 1015.98 1015.98 1016.25 1016.37 1015.57 1015.77
1007.64 1008.65 1009.12 1009.77 1010.35 1009.87 1010.62 1012.42 1012.64 1012.93 1014.44 1015.98 1015.94 1016.00 1016.78 1017.25 1018.48 1018.88 1018.84 1018.89 1018.80 1018.46 1018.06 1017.83 1017.95 1017.77 1017.35 1016.84 1016.40 1016.60 1016.83 1017.01 1017.11 1017.57 1017.55 1016.95 1016.78 1016.55 1015.73 1015.57 1015.81 1015.60 1015.66 1015.87 1015.91 1016.31 1015.71 1014.93 1015.59
1007.92 1008.51 1009.41 1009.55 1010.24 1010.82 1010.75 1012.39 1013.12 1013.92 1014.79 1014.96 1015.25 1016.17 1016.82 1017.43 1018.19 1018.48 1018.83 1018.86 1018.91 1019.03 1018.93 1018.62 1018.49 1018.35 1017.92 1017.32 1016.94 1016.83 1017.01 1016.97 1017.03 1017.04 1017.20 1017.08 1016.88 1016.65 1016.10 1016.19 1016.29 1016.23 1015.89 1015.89 1015.79 1015.70 1015.70 1015.68 1015.59
1008.04 1008.57 1009.81 1010.23 1011.03 1011.46 1012.38 1013.82 1014.46 1013.43 1013.51 1015.39 1015.91 1016.56 1017.16 1017.77 1017.98 1018.40 1019.04 1019.60 1019.68 1019.74 1019.64 1019.39 1019.14 1018.95 1018.61 1018.33 1017.94 1017.47 1017.31 1017.30 1017.29 1017.47 1017.71 1017.56 1017.30 1016.80 1016.55 1016.56 1016.76 1016.51 1016.38 1016.09 1015.98 1015.80 1015.67 1015.76 1015.72
1009.29 1010.02 1010.35 1010.94 1011.71 1011.69 1013.68 1017.36 1018.37 1016.78 1016.61 1017.65 1017.22 1016.98 1017.63 1017.79 1018.21 1018.73 1019.21 1019.75 1020.08 1020.26 1020.13 1020.09 1019.94 1019.82 1019.46 1018.96 1018.53 1018.10 1017.58 1017.47 1017.72 1017.65 1017.59 1017.21 1017.17 1017.12 1017.17 1017.34 1017.34 1017.06 1016.82 1016.58 1016.30 1016.20 1016.14 1015.99 1015.74
1010.62 1010.56 1010.83 1011.74 1013.40 1014.59 1016.39 1019.17 1019.67 1019.31 1017.80 1019.90 1021.60 1019.68 1018.15 1018.11 1018.50 1019.02 1019.26 1019.65 1020.32 1020.45 1020.37 1020.51 1020.41 1020.27 1020.09 1019.83 1019.38 1018.82 1018.37 1018.30 1018.09 1017.92 1017.79 1017.50 1017.47 1017.51 1017.52 1017.44 1017.33 1017.17 1017.21 1017.00 1016.76 1016.50 1016.17 1016.00 1015.88
1008.22 1009.81 1010.86 1012.33 1014.25 1015.36 1017.01 1017.71 1019.89 1021.00 1019.29 1021.57 1018.59 1020.15 1019.10 1018.40 1018.72 1018.76 1018.99 1019.68 1020.40 1020.55 1020.65 1020.68 1020.59 1020.46 1020.29 1020.29 1020.13 1019.81 1019.56 1019.21 1018.94 1018.45 1018.20 1017.90 1017.82 1017.90 1017.86 1017.79 1017.48 1017.27 1017.41 1017.31 1017.04 1016.77 1016.59 1016.34 1016.13
1007.75 1009.09 1010.88 1013.45 1013.74 1014.09 1015.87 1017.24 1018.81 1020.55 1021.18 1021.53 1020.10 1018.94 1019.11 1018.65 1018.69 1018.69 1019.16 1019.82 1020.45 1020.79 1021.00 1020.82 1020.66 1020.55 1020.49 1020.53 1020.46 1020.30 1019.99 1019.75 1019.42 1019.06 1018.76 1018.53 1018.59 1018.56 1018.46 1018.25 1018.19 1017.87 1017.62 1017.45 1017.25 1017.14 1017.03 1016.74 1016.33
1007.78 1009.11 1010.65 1013.32 1014.97 1016.59 1017.63 1019.08 1019.66 1019.43 1019.83 1020.64 1019.42 1019.44 1018.96 1018.21 1018.36 1018.75 1019.41 1019.94 1020.65 1020.93 1021.15 1020.97 1020.84 1020.80 1020.83 1020.91 1020.86 1020.74 1020.31 1020.09 1020.08 1019.78 1019.69 1019.17 1019.01 1018.92 1018.88 1018.67 1018.47 1018.31 1018.12 1018.00 1017.64 1017.35 1017.21 1017.19 1016.65
1008.56 1009.55 1011.15 1013.01 1014.87 1018.15 1019.52 1020.90 1020.11 1019.37 1019.34 1019.66 1019.78 1019.30 1018.36 1017.91 1018.44 1018.72 1019.31 1020.28 1020.75 1021.11 1021.04 1021.11 1021.16 1021.13 1021.38 1021.43 1021.35 1021.47 1021.46 1021.27 1021.08 1020.66 1020.41 1020.00 1019.53 1019.37 1019.04 1018.81 1018.57 1018.40 1018.26 1018.19 1017.93 1017.60 1017.36 1017.22 1017.20
1008.47 1009.28 1010.63 1012.35 1014.85 1017.28 1018.65 1019.79 1020.13 1020.32 1019.87 1019.78 1019.09 1018.70 1017.85 1017.98 1018.38 1019.02 1019.64 1020.35 1020.61 1020.84 1021.21 1021.45 1021.47 1021.53 1021.86 1021.96 1021.90 1021.93 1021.95 1021.76 1021.47 1021.14 1020.79 1020.43 1019.99 1019.73 1019.34 1019.05 1018.83 1018.65 1018.44 1018.27 1017.93 1017.60 1017.38 1017.22 1017.19
1007.51 1009.41 1010.95 1012.86 1015.06 1017.98 1018.85 1020.13 1019.84 1019.82 1018.76 1019.06 1018.55 1017.77 1017.68 1018.17 1018.69 1019.24 1019.90 1020.17 1020.50 1020.63 1021.37 1021.65 1021.71 1021.90 1022.27 1022.31 1022.30 1022.29 1022.39 1022.31 1022.10 1021.71 1021.43 1021.03 1020.62 1020.20 1019.82 1019.46 1019.22 1018.92 1018.63 1018.39 1018.03 1017.67 1017.35 1017.19 1017.04
1007.70 1009.28 1011.40 1013.69 1015.76 1017.80 1018.41 1019.40 1018.47 1017.84 1017.78 1017.72 1017.72 1017.26 1017.82 1018.22 1018.98 1019.61 1020.02 1020.43 1020.67 1021.02 1021.62 1021.78 1021.86 1022.38 1022.60 1022.55 1022.58 1022.62 1022.58 1022.48 1022.43 1022.17 1021.83 1021.49 1021.02 1020.63 1020.33 1019.90 1019.59 1019.35 1018.91 1018.46 1018.03 1017.80 1017.51 1017.26 1017.08
1008.24 1009.43 1011.32 1013.24 1015.21 1017.10 1018.84 1018.71 1017.91 1017.10 1017.46 1017.37 1017.13 1017.13 1017.45 1018.10 1019.02 1019.79 1020.19 1020.57 1020.98 1021.31 1021.65 1021.89 1022.18 1022.72 1022.75 1022.77 1022.90 1022.84 1022.64 1022.55 1022.47 1022.29 1021.97 1021.70 1021.38 1021.03 1020.57 1020.24 1019.86 1019.52 1019.11 1018.67 1018.26 1018.09 1017.72 1017.34 1017.00
1008.24 1009.17 1010.07 1011.87 1013.29 1016.20 1018.62 1018.21 1017.54 1016.99 1017.25 1017.08 1017.18 1017.27 1017.84 1018.50 1019.31 1019.98 1020.34 1020.77 1021.23 1021.57 1021.81 1022.11 1022.38 1022.84 1022.97 1023.05 1023.04 1023.00 1022.83 1022.72 1022.68 1022.45 1022.13 1021.88 1021.64 1021.03 1020.54 1020.38 1020.15 1019.81 1019.37 1018.93 1018.52 1018.28 1017.92 1017.48 1017.10
1008.13 1008.85 1010.25 1011.91 1013.98 1016.08 1018.54 1018.98 1019.29 1017.53 1017.28 1017.32 1017.23 1017.63 1018.01 1018.75 1019.43 1019.98 1020.45 1020.95 1021.28 1021.70 1021.97 1022.11 1022.35 1022.93 1023.02 1023.03 1023.10 1023.05 1022.93 1022.85 1022.79 1022.56 1022.33 1021.96 1021.63 1021.18 1020.77 1020.62 1020.45 1020.20 1019.70 1019.24 1018.93 1018.60 1018.24 1017.84 1017.53
1008.84 1009.75 1010.89 1012.03 1013.69 1015.26 1017.65 1019.00 1017.84 1017.40 1017.37 1017.23 1017.42 1017.63 1018.23 1018.87 1019.48 1020.13 1020.62 1021.08 1021.34 1021.71 1022.13 1022.42 1022.56 1022.94 1023.08 1023.09 1023.16 1023.11 1023.00 1022.91 1022.80 1022.63 1022.42 1022.12 1021.67 1021.29 1021.13 1020.91 1020.66 1020.47 1020.17 1019.74 1019.30 1018.91 1018.66 1018.32 1017.93
1009.25 1009.97 1011.12 1012.89 1014.05 1014.68 1015.70 1017.29 1015.95 1017.02 1017.34 1017.15 1017.71 1017.62 1018.26 1018.77 1019.51 1020.03 1020.62 1021.13 1021.63 1021.96 1022.33 1022.52 1022.69 1022.91 1022.89 1022.99 1023.09 1023.04 1023.02 1022.99 1022.83 1022.71 1022.59 1022.14 1022.10 1021.51 1021.17 1021.13 1020.92 1020.70 1020.56 1020.20 1019.77 1019.40 1019.08 1018.77 1018.33
Wind_Speed
6 7 3 2 6 5 2 6 11 11 6 11 18 13 14 6 5 5 5 18 18 13 10 11 12 12 10 9 8 7 6 6 6 5 4 4 3 3 3 2 2 3 4 4 4 4 5 6 8
4 7 2 3 6 4 2 8 10 8 7 12 19 16 17 15 14 9 9 15 17 13 7 7 10 9 9 8 6 6 5 4 4 4 4 3 2 1 1 1 1 1 1 2 2 3 3 5 7
1 4 4 4 2 5 4 9 11 11 17 17 17 14 7 6 8 4 16 18 15 12 8 8 11 9 8 6 6 5 4 3 3 4 4 3 2 2 1 2 3 3 2 1 1 1 1 1 4
2 2 4 5 5 10 8 10 8 16 14 14 10 9 13 8 6 5 17 18 15 14 12 14 12 11 11 10 8 7 6 6 5 4 4 3 3 3 3 5 5 6 6 5 5 4 3 2 3
1 2 3 6 4 6 13 9 8 14 14 15 15 15 12 14 10 8 8 12 13 11 11 12 16 15 14 13 11 8 6 4 4 5 5 4 4 5 5 6 7 9 9 9 7 5 6 5 4
2 3 4 2 3 5 7 12 8 9 11 15 15 13 8 11 11 19 23 26 15 9 10 12 17 15 12 11 11 10 9 10 9 7 7 7 7 6 6 6 9 11 11 11 9 6 7 7 6
6 4 3 6 2 7 6 8 12 14 13 6 15 12 8 21 16 14 14 21 19 12 11 9 4 12 12 10 9 11 11 10 9 6 9 7 8 7 1 4 8 11 13 13 10 9 10 10 9
4 6 6 5 16 3 9 12 9 7 2 6 2 6 10 9 14 15 12 9 15 10 7 4 6 3 6 6 12 10 6 7 6 8 10 4 2 4 9 11 13 17 17 14 10 11 12 12 12
6 2 2 17 12 9 9 3 17 6 5 3 8 15 18 18 13 15 12 9 7 7 7 9 15 7 6 6 7 8 9 10 9 10 7 4 3 5 8 8 17 20 13 8 7 13 17 15 14
6 6 5 17 17 18 13 15 9 9 8 3 20 19 22 20 11 11 10 4 4 2 8 9 11 7 5 7 6 6 7 5 5 5 5 4 5 5 8 12 18 19 13 6 10 23 19 16 5
8 13 18 19 19 17 11 7 7 6 6 2 17 18 21 28 11 8 5 2 4 3 8 12 8 7 6 3 4 3 4 3 4 3 3 3 5 4 4 4 5 5 11 5 9 11 8 7 3
24 20 19 14 14 10 10 8 6 6 10 13 17 8 15 12 5 5 8 5 4 9 6 6 7 6 6 3 4 2 1 3 7 3 4 2 3 3 7 3 4 5 3 6 8 4 6 6 5
21 22 10 9 14 9 12 17 14 7 14 16 16 17 13 8 8 2 4 4 6 8 7 6 7 7 6 5 4 5 5 7 12 5 3 2 2 5 4 4 3 3 5 3 3 4 3 3 5
13 17 11 5 3 3 9 10 11 4 15 19 18 16 15 12 16 7 7 8 8 7 8 9 11 11 12 8 7 6 6 3 3 3 1 3 3 4 5 7 5 6 3 5 5 4 4 3 4
14 13 5 3 3 2 5 8 21 19 19 19 21 17 17 18 14 10 10 11 8 10 12 14 14 14 13 12 10 5 5 4 5 6 7 7 7 5 6 8 7 5 5 1 3 1 3 3 2
8 5 5 3 4 4 4 4 11 18 19 19 19 18 15 11 11 14 13 14 11 10 12 13 13 15 14 12 9 9 5 3 4 5 5 8 10 10 8 8 7 9 5 3 3 3 3 1 3
10 1 5 3 6 4 13 13 20 15 29 18 11 10 11 10 10 12 16 13 12 10 10 12 11 13 13 13 11 11 12 6 7 7 6 11 12 11 8 5 5 7 5 6 4 2 2 2 3
6 2 3 3 6 23 22 19 14 7 20 21 21 8 9 13 14 13 13 12 10 9 8 7 8 11 10 9 10 9 9 7 6 5 4 7 5 7 6 6 6 6 6 7 6 5 4 2 3
19 6 6 4 22 11 10 17 10 7 18 8 12 9 11 11 11 10 11 11 11 7 7 6 7 7 7 8 8 8 7 4 4 5 7 5 5 7 7 5 5 5 5 5 6 3 4 4 5
6 4 5 12 13 9 9 7 6 5 6 8 12 10 3 8 7 8 9 11 8 7 6 7 7 7 7 5 5 3 4 3 3 4 9 9 8 8 6 5 6 6 5 6 6 5 3 3 4
6 9 7 14 13 14 10 9 7 6 3 4 2 1 7 10 9 8 11 9 7 7 6 7 7 7 8 7 5 5 5 4 5 9 8 8 9 7 6 6 6 6 5 5 5 5 6 3 4
8 13 18 14 5 6 4 3 5 6 10 4 6 10 6 8 8 8 9 9 7 6 7 8 8 8 8 7 6 8 8 6 5 6 5 5 7 8 7 6 7 6 4 6 5 5 3 3 4
6 15 9 7 8 7 6 5 8 7 6 7 8 10 8 9 11 10 10 9 7 7 8 7 7 8 8 8 7 5 7 3 5 5 8 8 6 6 10 8 7 6 5 5 6 6 5 2 1
4 7 4 7 5 6 2 4 8 5 8 2 8 6 8 10 11 10 9 8 7 7 11 6 7 7 8 7 7 8 8 7 6 6 5 5 5 5 6 8 6 6 6 6 5 5 6 5 4
9 7 4 5 5 5 9 6 10 13 10 12 9 8 9 9 9 9 9 7 6 8 9 7 8 8 7 7 7 7 7 7 6 6 5 6 5 4 7 6 6 5 6 6 6 5 5 5 4
6 4 5 3 4 4 9 0 7 9 14 12 8 9 9 10 10 9 8 7 9 8 8 7 7 9 7 7 6 6 7 4 4 5 4 4 4 4 6 6 6 7 7 7 7 4 4 5 5
6 5 6 3 1 7 3 4 6 7 14 10 11 10 7 9 11 9 9 8 9 8 8 7 8 8 6 6 5 5 5 6 5 7 5 4 4 4 6 6 7 7 8 7 7 5 6 6 6
2 5 6 6 3 5 2 6 7 8 7 8 12 10 6 8 10 9 8 8 8 7 7 8 8 8 7 7 5 3 5 6 5 5 6 6 5 6 7 6 7 7 7 9 7 5 6 6 6
8 6 6 3 4 2 5 4 9 16 7 8 9 8 9 9 9 10 8 8 8 8 8 7 7 8 7 5 3 3 5 6 5 4 5 6 5 6 7 6 7 6 9 8 6 7 6 7 7
3 5 6 6 7 2 6 5 4 10 6 11 10 9 8 10 9 10 9 8 8 7 7 7 7 6 6 5 4 5 5 6 6 5 5 5 6 5 6 6 7 6 9 9 8 8 6 7 8
Wind_Direction
190 193 147 32 36 49 226 92 101 81 47 84 76 70 60 87 130 180 155 113 122 132 141 142 139 139 135 131 129 129 126 123 119 111 100 87 76 81 83 74 77 101 103 87 74 55 51 35 12
304 279 180 57 46 18 344 88 108 128 89 76 93 88 77 70 80 94 96 129 124 129 130 125 137 135 137 136 135 136 135 131 127 132 139 142 137 105 50 14 5 1 103 107 83 68 48 24 359
287 252 60 55 104 291 54 80 87 85 79 77 75 74 94 105 109 76 125 124 126 128 130 147 147 142 144 148 146 148 150 156 170 176 183 185 177 194 232 280 287 288 277 274 238 241 116 359 348
168 7 70 56 296 298 101 57 46 101 98 104 113 63 55 91 74 113 130 136 133 148 140 149 153 159 165 168 168 180 186 186 199 203 208 210 197 216 239 258 269 274 267 251 216 222 231 243 304
248 334 86 135 163 273 82 89 100 107 100 100 98 89 80 80 96 103 130 141 127 119 130 151 165 175 178 178 179 181 185 224 233 230 221 216 229 228 236 257 265 264 261 256 245 221 212 221 259
273 138 66 222 65 322 36 22 23 26 110 112 99 105 109 103 84 47 57 47 46 110 144 165 178 176 188 180 181 184 182 201 207 228 237 218 225 231 240 256 267 268 264 257 254 241 215 224 243
181 357 251 164 205 73 10 48 47 72 57 18 126 123 135 74 77 62 76 70 48 36 23 320 271 195 170 193 196 189 201 206 203 215 251 233 248 244 174 231 246 248 257 251 238 237 222 220 228
94 130 172 235 123 64 39 19 332 13 66 115 352 129 106 109 82 64 41 79 89 40 350 350 301 224 179 197 212 211 217 248 218 229 230 229 237 180 182 221 236 247 226 234 242 244 234 229 229
258 28 185 104 106 145 95 95 354 356 105 341 38 71 100 108 90 73 55 5 34 75 280 336 315 239 185 187 217 207 228 235 221 226 189 189 240 253 248 253 263 273 251 193 251 276 246 231 232
169 117 9 102 138 134 143 98 108 327 323 132 78 78 73 39 42 80 63 46 320 53 265 280 281 64 107 187 204 205 225 207 214 201 199 237 244 244 245 254 256 264 271 157 193 247 257 233 222
6 106 100 111 125 122 125 105 128 359 320 246 114 102 89 77 293 81 91 52 223 193 267 283 43 40 24 355 199 221 226 210 233 227 223 292 308 291 259 281 299 268 299 242 223 251 254 242 229
73 108 89 104 115 129 137 117 64 156 243 61 109 86 77 93 164 89 126 201 231 236 242 65 53 38 8 353 352 285 240 234 354 5 50 53 281 316 292 260 336 13 33 74 322 347 333 333 318
94 97 77 116 153 151 122 122 128 231 232 102 104 98 111 112 123 129 174 208 57 40 29 60 59 30 4 0 333 319 328 93 81 36 345 71 271 295 316 3 19 19 73 64 274 311 309 249 352
97 97 123 132 306 88 118 149 136 335 115 105 120 111 116 112 98 136 86 84 62 41 24 22 41 17 7 339 335 1 60 77 105 139 161 332 3 349 26 23 17 351 344 183 202 225 250 73 272
131 111 138 117 230 340 355 85 112 128 125 123 94 89 80 93 99 105 91 74 53 47 42 31 26 15 5 353 2 32 77 78 61 61 45 42 41 9 39 27 16 1 7 53 289 308 107 91 137
69 62 52 143 102 297 46 81 38 103 106 95 86 82 88 110 108 99 89 73 60 50 47 35 27 15 7 7 11 15 4 72 81 70 63 60 46 28 32 34 22 3 355 35 25 9 357 318 232
16 54 303 314 140 216 50 36 11 1 55 38 92 114 116 112 87 86 86 84 74 62 53 45 29 22 11 14 11 8 4 39 43 46 45 46 38 34 35 20 13 7 4 357 341 8 352 295 291
155 201 249 167 93 60 63 61 50 12 53 358 336 277 119 91 92 99 98 94 88 76 62 72 44 33 22 25 11 12 13 26 37 32 43 49 41 46 33 18 13 9 12 14 9 13 349 339 344
181 157 197 103 140 103 106 77 35 95 109 133 86 39 95 111 122 123 114 104 95 81 71 62 63 35 37 38 21 16 1 5 5 6 28 24 43 45 40 16 13 16 17 1 3 344 357 350 358
48 94 93 70 101 80 81 129 124 62 122 176 133 142 197 115 113 115 110 101 102 105 93 66 68 51 37 46 18 14 349 6 13 353 9 11 47 48 34 20 1 6 7 357 358 16 347 335 0
49 79 48 119 85 51 87 4 4 331 133 189 109 171 202 140 126 107 103 112 113 102 104 79 63 60 48 44 26 13 354 5 14 21 28 40 44 51 31 13 9 2 4 344 335 350 6 336 332
62 92 99 159 96 103 310 285 272 284 339 353 287 305 175 116 121 107 97 95 121 125 100 79 65 53 59 44 38 38 20 18 359 11 16 359 19 23 17 10 12 10 359 350 332 341 324 3 335
154 122 136 111 82 93 11 98 287 341 314 300 303 272 133 129 107 104 100 103 95 109 97 86 68 54 60 56 48 38 33 20 4 0 11 359 359 12 12 6 359 359 354 343 348 344 349 338 317
294 146 57 73 116 48 243 106 276 233 213 328 284 194 129 104 101 99 107 107 106 87 104 96 80 60 70 71 49 43 34 13 17 2 358 342 344 354 357 357 356 350 351 345 337 334 347 359 353
17 12 344 17 39 195 147 110 242 217 232 202 211 106 105 107 109 94 83 88 84 85 118 100 76 62 88 71 56 45 31 23 16 351 346 345 344 354 355 357 356 356 349 347 347 350 355 348 342
303 120 134 285 163 162 158 56 291 197 213 201 143 108 97 100 106 102 94 76 79 84 93 96 86 82 94 78 59 34 28 11 353 357 344 347 356 353 355 356 4 356 352 348 349 344 335 338 335
303 2 230 182 325 91 76 326 335 161 170 139 118 99 109 113 120 115 97 79 89 85 70 104 92 85 107 94 67 36 12 9 2 357 1 0 357 358 358 12 354 357 354 349 348 347 346 349 342
235 256 10 0 8 77 357 79 299 270 150 151 128 123 125 118 112 107 97 85 83 99 81 68 74 109 103 81 65 39 18 15 3 4 13 11 1 353 12 15 5 358 358 353 350 350 348 6 7
355 12 20 90 67 97 149 220 233 230 169 143 133 129 111 111 115 112 104 93 91 81 81 72 57 104 98 100 84 23 33 14 12 6 13 3 3 5 7 16 4 9 360 351 354 358 10 12 11
334 109 93 107 309 302 117 287 264 126 132 110 114 102 105 105 108 113 114 102 92 87 95 83 58 69 139 136 109 46 30 19 16 13 10 5 10 3 20 14 15 6 12 354 355 6 17 15 14